[[{"header":{"parameterUnit":"m.s-1","parameterCategory":1,"la1":30.2992,"la2":30.254,"lo1":-89.0895,"lo2":-89.0443,"dy":0.0025,"dx":0.0025,"nx":19,"ny":19,"refTime":"2026-05-05T09:00:00:Z","depth":0,"parameterNumber":2,"parameterNumberName":"U-component_of_WINDS"},"data":[0,0,0,1.1382,1.1383,1.1463,1.1463,1.1556,1.1557,0,0,0,0,0,0,0,0,0,0,0,1.1356,1.1357,1.1382,1.1384,1.1462,1.1463,1.1556,1.1557,0,0,0,0,0,0,0,0,0,0,0,1.1356,1.1357,1.1357,1.1384,1.1462,1.1463,1.1556,1.1499,0,0,0,0,0,0,0,0,0,0,1.1423,1.1398,1.1356,1.1357,1.1384,1.1462,1.1463,1.1496,1.1502,1.1518,0,1.1533,0,1.1547,1.1563,1.1564,0,0,0,1.1385,1.1393,1.1416,1.1357,1.1385,1.1462,1.1427,1.15,1.1507,1.1526,1.1535,1.1538,1.1548,1.1564,1.1564,1.1653,1.1653,0,0,1.1381,1.1369,1.1411,1.142,1.141,1.1425,1.143,1.1504,1.1512,1.1535,1.1541,1.155,1.1564,1.1565,1.1653,1.1653,0,0,0,1.1367,1.1366,1.1388,1.1416,1.1431,1.1427,1.1433,1.1508,1.1517,1.1542,1.1551,1.1565,1.1566,1.1653,1.1653,1.1658,0,0,0,1.1365,1.1358,1.1386,1.1379,1.143,1.1471,1.1435,1.1511,1.152,1.1551,1.1565,1.1567,1.1652,1.1653,1.1657,1.1662,0,0,0,1.1352,1.1356,1.1367,1.1378,1.1412,1.147,1.1483,1.1514,1.1526,1.1564,1.1567,1.1652,1.1653,1.1656,1.1661,1.1681,0,0,0,1.1334,1.1372,1.1367,1.1412,1.1411,1.1474,1.1483,1.153,1.1563,1.1565,1.1652,1.1653,1.1656,1.166,1.168,1.1695,1.17,0,0,1.1374,1.1376,1.1403,1.1401,1.1462,1.1462,1.1523,1.1564,1.1578,1.1627,1.1629,1.1657,1.1661,1.1681,1.1737,1.1741,0,0,0,1.1412,1.1431,1.1449,1.148,1.1513,1.154,1.1574,1.1588,1.163,1.1601,1.1671,1.1673,1.1685,1.1693,1.1696,1.1706,1.1656,1.1656,1.1656,1.1451,1.1467,1.1512,1.1536,1.1566,1.1599,1.1624,1.1649,1.1657,1.1673,1.1687,1.1719,1.1728,1.1731,1.1741,1.1697,1.1697,1.1697,1.1697,1.151,1.1539,1.1547,1.1593,1.1609,1.1647,1.1679,1.1683,1.1719,1.1711,1.1722,1.171,1.1735,1.1744,1.1698,1.1698,1.1698,1.1698,1.1698,1.1537,1.1553,1.1571,1.1615,1.1647,1.1671,1.1705,1.1718,1.173,1.1742,1.1757,1.1756,1.1757,1.1748,1.1748,1.1748,1.1748,1.1748,1.1748,1.1557,1.1577,1.1605,1.1641,1.1661,1.1689,1.172,1.174,1.1765,1.1771,1.1772,1.1776,1.1735,1.1724,1.175,1.175,1.175,1.1749,1.1749,1.161,1.1599,1.1643,1.1663,1.1704,1.1734,1.175,1.1788,1.1806,1.1821,1.1823,1.1791,1.1793,1.1791,1.1781,1.1821,1.1821,1.1821,1.1821,1.1631,1.1634,1.1679,1.171,1.1742,1.176,1.1805,1.1828,1.1851,1.1862,1.1858,1.1847,1.1844,1.1848,1.1844,1.1835,1.1888,1.1888,1.1888,1.1663,1.1669,1.1706,1.1729,1.1761,1.1788,1.183,1.1863,1.1887,1.1891,1.1871,1.1868,1.185,1.1844,1.1848,1.1841,1.1826,0,0]},{"header":{"parameterUnit":"m.s-1","parameterCategory":1,"la1":30.2992,"la2":30.254,"lo1":-89.0895,"lo2":-89.0443,"dy":0.0025,"dx":0.0025,"nx":19,"ny":19,"refTime":"2026-05-05T09:00:00:Z","depth":0,"parameterNumber":3,"parameterNumberName":"V-component_of_WINDS"},"data":[0,0,0,3.5572,3.5576,3.5768,3.5769,3.5999,3.6001,0,0,0,0,0,0,0,0,0,0,0,3.551,3.5511,3.5571,3.5576,3.5768,3.5769,3.5999,3.6001,0,0,0,0,0,0,0,0,0,0,0,3.5509,3.5511,3.5512,3.5577,3.5768,3.5769,3.5999,3.5858,0,0,0,0,0,0,0,0,0,0,3.5674,3.5612,3.551,3.5512,3.5578,3.5767,3.5769,3.5852,3.5867,3.5907,0,3.5945,0,3.5977,3.6016,3.6017,0,0,0,3.5579,3.56,3.5656,3.5513,3.558,3.5767,3.5682,3.586,3.5878,3.5927,3.5948,3.5957,3.5981,3.6018,3.6019,3.6246,3.6247,0,0,3.5569,3.5541,3.5644,3.5667,3.5641,3.5676,3.5688,3.5871,3.589,3.5949,3.5962,3.5984,3.6019,3.6021,3.6245,3.6246,0,0,0,3.5536,3.5533,3.5586,3.5658,3.5693,3.5682,3.5696,3.5882,3.5902,3.5965,3.5987,3.602,3.6023,3.6244,3.6246,3.6264,0,0,0,3.553,3.5514,3.5581,3.5565,3.569,3.5791,3.5702,3.5889,3.5911,3.5986,3.602,3.6025,3.6243,3.6245,3.6261,3.6277,0,0,0,3.5499,3.5511,3.5537,3.5564,3.5645,3.5789,3.5819,3.5895,3.5924,3.6017,3.6026,3.6243,3.6245,3.6259,3.6273,3.6328,0,0,0,3.5457,3.555,3.5537,3.5649,3.5644,3.58,3.5818,3.5935,3.6017,3.6021,3.6244,3.6245,3.6258,3.6271,3.6326,3.6369,3.6385,0,0,3.5559,3.5561,3.5629,3.5623,3.5774,3.5772,3.5925,3.6026,3.6059,3.6181,3.6187,3.6262,3.6273,3.6328,3.6484,3.6496,0,0,0,3.5652,3.57,3.5747,3.5824,3.5904,3.5973,3.6054,3.609,3.6195,3.6117,3.6298,3.6305,3.6338,3.636,3.6371,3.64,3.6255,3.6254,3.6254,3.5756,3.5794,3.5909,3.597,3.6044,3.6125,3.6188,3.6251,3.6267,3.6309,3.6346,3.6436,3.6461,3.6469,3.6499,3.6372,3.6372,3.6372,3.6372,3.5908,3.5982,3.6001,3.6119,3.6158,3.6256,3.6336,3.6344,3.6438,3.6412,3.6443,3.6411,3.6481,3.651,3.6374,3.6373,3.6373,3.6373,3.6373,3.598,3.6022,3.6066,3.6181,3.6264,3.6321,3.6411,3.6443,3.6473,3.6503,3.6544,3.6544,3.6547,3.6521,3.6521,3.6521,3.6521,3.6522,3.6522,3.6038,3.6087,3.6161,3.6252,3.6305,3.6378,3.6458,3.6509,3.6574,3.659,3.659,3.6601,3.6482,3.6451,3.6527,3.6526,3.6525,3.6525,3.6525,3.6178,3.6151,3.6265,3.6318,3.6426,3.6505,3.6543,3.6645,3.6692,3.6735,3.6738,3.6646,3.665,3.6642,3.6617,3.6731,3.6731,3.6731,3.6731,3.6238,3.6244,3.6367,3.6449,3.6532,3.6578,3.6701,3.6763,3.6822,3.6852,3.684,3.6809,3.6799,3.6809,3.6797,3.6774,3.6926,3.6926,3.6927,3.6326,3.634,3.6442,3.6502,3.6587,3.6659,3.6776,3.6866,3.6927,3.6935,3.6876,3.6868,3.6818,3.68,3.6808,3.6789,3.6747,0,0]}]]